sat.trackr.live / text

‹ back to catalog

STARLINK-3928

NORAD 52606 · 2022-052J

PAYLOAD ACTIVE UNKNOWN

§ Identity

Operator
Country
US
Launch date
2022-05-14
Launch site
AFETR
Launch vehicle
Mass (kg)
RCS (m²)

Purposes: comms

External: N2YO · Heavens-Above · Gunter

§ Orbital elements

Epoch: 2026-05-24T19:52:37.051968Z

Period
95.44 min
Inclination
53.2151°
Eccentricity
0.0001369
Mean motion
15.08841014 rev/d
Perigee alt
538.8 km
Apogee alt
540.7 km
Semi-major
6,917.9 km
B*
-2.2158e-5
RAAN
297.3217°
Arg perigee
90.0173°
Mean anomaly
270.0976°
Rev number
22,235

§ Raw data

STARLINK-39281 52606U 22052J   26144.82820662 -.00000641  00000+0 -22158-4 0  99952 52606  53.2151 297.3217 0001369  90.0173 270.0976 15.08841014222355

JSON: /api/v1/satellites/52606 · /tle

For live sub-satellite position, see the globe view (requires WebGL).

§ Visibility from observer

Set your observer location to see the next 7 days of passes ≥ 10°. The values pass through the URL so the page stays shareable.

No JS? Fill the form by hand. The geolocation button needs JavaScript.